OSCAR 19 (LUSAT)

Satellite information

Favourite Embed

Satellite Type and Status

PAYLOADIN ORBIT

Key statistics

Satellite OSCAR 19 (LUSAT) at a glance.

Uptime

12888

Days in orbit

Revolutions

≈ 14.3

Per day

Orbit

SSO

Sun Synchronous Orbit

Inclination

98.9

Latest

Satellite identification and parameters

Extended collection of information and parameters for OSCAR 19 (LUSAT).

Object identification

Identified? True

Debris? False

Object name: OSCAR 19 (LUSAT)

International designator: 1990-005G

Object number (NORAD): 20442

Object ID (CCSDS): 20442

Country: ARGENTINA (ARGN)

Current information (Y/N): Y

RCS size: MEDIUM

Orbital parameters

Period: 100.423 minutes

Inclination: 98.8991 deg

SMA: 7156.727 km

Apoapsis: 786.405 km

Periapsis: 770.779 km

RAAN: 130.6951 deg

Eccentricy: 0.0010917

Argument of periapsis: 326.2714 deg

Mean anomaly: 33.7774 deg

Mean motion: 14.33940289 rev/day

Mean motion (dot): 0.00000248 rev/day2

B* drag term: 0.00010562 1/REarth

Two-line elements (TLE)

Creation date: May 5, 2025, 2:16 p.m.

Reference frame: TEME

Reference center: EARTH

Epoch: May 5, 2025, 11:57 a.m. UTC

TLE line 0: 0 OSCAR 19 (LUSAT)

TLE line 1: 1 20442U 90005G 25125.49809894 .00000248 00000-0 10562-3 0 9993

TLE line 2: 2 20442 98.8991 130.6951 0010917 326.2714 33.7774 14.33940289844028

Live tracking on map

Real-time ground track for satellite OSCAR 19 (LUSAT).

In-orbit conjunctions

A list of the most updated potential collisions computed for object OSCAR 19 (LUSAT).

Target Orbit TCA Probability of collision Miss distance Type
CZ-6A DEB LEO 2025-04-18 01:45:57 0.001292169 146.0 (m) DEBRIS
CZ-6A DEB LEO 2025-03-01 19:05:35 0.0001422672 127.0 (m) DEBRIS
FENGYUN 1C DEB SSO 2024-12-31 09:33:00 0.0003138556 610.0 (m) DEBRIS
METEOR 2-5 DEB LEO 2024-11-07 20:11:38 0.0001075276 721.0 (m) DEBRIS
CZ-6A DEB SSO 2024-11-01 19:14:54 0.0001174392 933.0 (m) DEBRIS

Associated space launch

French Earth observation satellite

OSCAR 19 (LUSAT) was lifted into orbit during the mission ‘Ariane 40 | SPOT 2’, on board a Ariane 40 space rocket.

The launch took place on Jan. 22, 1990, 1:35 a.m. from Ariane Launch Area 2.

For more information about the launch, click the button.

Launch to space Ariane 40 | SPOT 2
Ariane 40 | SPOT 2

Agency: N/A

Status: Launch Successful

Launch date: Jan. 22, 1990, 1:35 a.m. UTC

Rocket: Ariane 40

Launch pad: Ariane Launch Area 2

Location: Guiana Space Centre, French Guiana

...

Latest news about this satellite

There are no fresh news available about this satellite. Check back as we update our databases every day.


Newsletter sign-up

Weekly statistics, charts and insights to help you stay on top of the space industry.